Weather in Palm Coast

United States     29°34′25″N   81°12′41″W
temp.,
°C
wind,
m/s
gust,
m/s
humid.,
%
clouds,
%
prec.,
mm/h
press.,
hPa
HPBL,
m
7 may, fri
fri723:00+22w2586100 0.1 1015124
02:00+20wnw27910 0.1 1015230
05:00+17nw29690 0.0 1015225
08:00+18nw27570 0.0 1017244
11:00+25nw36290 0.0 10171444
14:00+29wnw47180 0.0 10152351
17:00+29nw46150 0.0 10142599
20:00+21nne12390 0.0 101634
8 may, sat
sat823:00+17nnw29420 0.0 1018221
02:00+15nw24440 0.0 101976
05:00+14nnw255320 0.0 101990
08:00+17nnw25510 0.0 1020162
11:00+24ne33300 0.0 10211509
14:00+25ene44302 0.0 10211589
17:00+24e32340 0.0 10201122
20:00+19e26525 0.0 1020177
9 may, sun
sun923:00+18ese2453100 0.0 102178
02:00+18se23563 0.0 102043
05:00+18sse226441 0.0 102041
08:00+20sse15611 0.0 1021154
11:00+27se45390 0.0 10211455
14:00+29ese56374 0.0 10201771
17:00+27ese574834 0.0 1018825
20:00+24se4116955 0.0 1018510
10 may, mon
mon1023:00+23s31174100 0.0 1019635
02:00+22s41277100 0.0 1018623
05:00+21s298665 0.0 1017335
08:00+22ssw28905 0.8 1019325
11:00+28ssw366028 1.1 10181400
14:00+32ssw254197 1.4 10161987
17:00+30se3551100 0.0 1014510
20:00+25se117198 0.1 101629
11 may, tue
tue1123:00+23wnw1362100 0.0 101866
02:00+22wsw1272100 0.0 101742
05:00+21w118186 0.0 101711
08:00+23w13775 0.0 1019148
11:00+31w244732 0.0 10191581
14:00+33nne2438100 0.1 10172221
17:00+22ene369692 8.3 1017203
20:00+22ese1399100 33.1 1018161